Regional Weather Roundup
Issued by NWS

Home | Current Version | Previous Version | Text Only | Print | Product List | Glossary Off
Versions: 1 2 3 4 5 6 7 8 9 10 11 12 13 14 15 16 17 18 19 20 21 22 23 24 25 26 27 28 29 30 31 32 33 34 35 36 37 38 39 40 41 42 43 44 45 46 47 48 49 50

691
ASUS44 KLIX 271905
RWRLA
LOUISIANA WEATHER ROUNDUP
NATIONAL WEATHER SERVICE NEW ORLEANS LA
200 PM CDT SUN JUL 27 2014

NOTE: "FAIR" INDICATES FEW OR NO CLOUDS BELOW 12,000 FEET WITH NO
      SIGNIFICANT WEATHER AND/OR OBSTRUCTIONS TO VISIBILITY.
      SKY/WX - SKY CONDITION AND SIGNIFICANT WEATHER.
      TMP - AIR TEMPERATURE.    DP   - DEWPOINT TEMPERATURE.
      RH  - RELATIVE HUMIDITY.  PRES - PRESSURE.
      HX  - HEAT INDEX.         WCI  - WIND CHILL INDEX.

*  THESE STATIONS ARE NOT NWS OR FAA STATIONS AND ARE NOT UNDER
   NWS QUALITY CONTROL.

LAZ040-048-061>063-065-066-069-272000-
SOUTHEAST LOUISIANA

CITY           SKY/WX    TMP DP  RH WIND       PRES   REMARKS
N.O. AUDUBON     N/A     94  75  54 MISG        N/A  HX 105
N.O. INTL ARPT MOSUNNY   92  73  53 W9        30.07F HX 100
N.O. LAKEFRONT SUNNY     90  75  61 N8        30.08F HX 100
N.O. DOWNTOWN* CLOUDY    90  73  58 CALM      30.08S HX  98
SLIDELL        MOSUNNY   91  72  53 W8        30.06F HX  98
BATON ROUGE    PTSUNNY   92  74  55 SW6       30.07F HX 101
BOOTHVILLE     SUNNY     88  76  67 SW12      30.10F HX  99
BELLE CHASSE   PTSUNNY   92  74  55 W10       30.07F HX 101
BOGALUSA*      FAIR      92  72  51 W5        30.08F HX 100
GALLIANO*      NOT AVBL
NEW ROADS*     MOCLDY    92  74  55 W6        30.07F HX 101
GONZALES*      FAIR      91  75  59 CALM      30.06F HX 102
HAMMOND*       MOSUNNY   91  68  46 W6        30.08F HX  95
HOUMA*         MOSUNNY   93  72  49 SW12      30.08F HX 100
PORT FOURCHON* CLEAR     88  77  70 SW10      30.11F HX 100

$$

LAZ041-044-053-054-272000-
SOUTHWEST LOUISIANA

CITY           SKY/WX    TMP DP  RH WIND       PRES   REMARKS
LAKE CHARLES   MOSUNNY   91  76  61 SW10      30.06F HX 103
LAFAYETTE      MOSUNNY   92  74  55 W12       30.07F HX 101
PATTERSON      MOSUNNY   90  79  70 W9        30.12F HX 105
SALT POINT       N/A     92  78  63 SW7       30.09F HX 107
NEW IBERIA     SUNNY     93  76  57 SW8       30.08F HX 105
CHENAULT AIRPK MOSUNNY   91  72  52 S13       30.07F HX  98

$$

LAZ027-028-272000-
CENTRAL LOUISIANA

CITY           SKY/WX    TMP DP  RH WIND       PRES   REMARKS
FORT POLK      MOSUNNY   89  72  56 VRB6      30.07F HX  96
ALEXANDRIA INT MOSUNNY   94  74  52 VRB6      30.04F HX 104
ALEXANDRIA     SUNNY     95  72  47 SW7       30.05F HX 103

$$

LAZ001-002-272000-
NORTHWEST LOUISIANA

CITY           SKY/WX    TMP DP  RH WIND       PRES   REMARKS
SHREVEPORT     MOSUNNY   93  72  50 SW12      30.03F HX 101
BARKSDALE AFB  SUNNY     93  71  49 SW8       30.03F HX 100
DTN SHREVEPORT SUNNY     92  71  50 VRB6      30.03F HX  98

$$

LAZ014-016-272000-
NORTHEAST LOUISIANA

CITY           SKY/WX    TMP DP  RH WIND       PRES   REMARKS
MONROE         SUNNY     93  73  52 SW8       30.03F HX 102
TALLULAH       SUNNY     92  74  55 VRB6      30.04F HX 101

$$




USA.gov is the U.S. government's official web portal to all federal, state and local government web resources and services.